GFSGBSN_prec_snow_195.txt.gz
Snowfall_Accumulation
0.0 0.0 0.0 0.0 0.0 0.0 0.0 0.0 0.0 0.0 0.0 0.0 0.0 0.0 0.0 0.0 0.0 0.0 0.0 0.0 0.0 0.0 0.0 0.0 0.0 0.0 0.0 0.0 0.0 0.0 0.0 0.0 0.0 0.0 0.0 0.0 0.0 0.0 0.0 0.0 0.0 0.0 0.0 0.0 0.0 0.0 0.0
0.0 0.0 0.0 0.0 0.0 0.0 0.0 0.0 0.0 0.0 0.0 0.0 0.0 0.0 0.0 0.0 0.0 0.0 0.0 0.0 0.0 0.0 0.0 0.0 0.0 0.0 0.0 0.0 0.0 0.0 0.0 0.0 0.0 0.0 0.0 0.0 0.0 0.0 0.0 0.0 0.0 0.0 0.0 0.0 0.0 0.0 0.0
0.0 0.0 0.0 0.0 0.0 0.0 0.0 0.0 0.0 0.0 0.0 0.0 0.0 0.0 0.0 0.0 0.0 0.0 0.0 0.0 0.0 0.0 0.0 0.0 0.0 0.0 0.0 0.0 0.0 0.0 0.0 0.0 0.0 0.0 0.0 0.0 0.0 0.0 0.0 0.0 0.0 0.0 0.0 0.0 0.0 0.0 0.0
0.0 0.0 0.0 0.0 0.0 0.0 0.0 0.0 0.0 0.0 0.0 0.0 0.0 0.0 0.0 0.0 0.0 0.0 0.0 0.0 0.0 0.0 0.0 0.0 0.0 0.0 0.0 0.0 0.0 0.0 0.0 0.0 0.0 0.0 0.0 0.0 0.0 0.0 0.0 0.0 0.0 0.0 0.0 0.0 0.0 0.0 0.0
0.0 0.0 0.0 0.0 0.0 0.0 0.0 0.0 0.0 0.0 0.0 0.0 0.0 0.0 0.0 0.0 0.0 0.0 0.0 0.0 0.0 0.0 0.0 0.0 0.0 0.0 0.0 0.0 0.0 0.0 0.0 0.0 0.0 0.0 0.0 0.0 0.0 0.0 0.0 0.0 0.0 0.0 0.0 0.0 0.0 0.0 0.0
0.0 0.0 0.0 0.0 0.0 0.0 0.0 0.0 0.0 0.0 0.0 0.0 0.0 0.0 0.0 0.0 0.0 0.0 0.0 0.0 0.0 0.0 0.0 0.0 0.0 0.0 0.0 0.0 0.0 0.0 0.0 0.0 0.0 0.0 0.0 0.0 0.0 0.0 0.0 0.0 0.0 0.0 0.0 0.0 0.0 0.0 0.0
0.0 0.0 0.0 0.0 0.0 0.0 0.0 0.0 0.0 0.0 0.0 0.0 0.0 0.0 0.0 0.0 0.0 0.0 0.0 0.0 0.0 0.0 0.0 0.0 0.0 0.0 0.0 0.0 0.0 0.0 0.0 0.0 0.0 0.0 0.0 0.0 0.0 0.0 0.0 0.0 0.1 0.0 0.0 0.0 0.0 0.0 0.0
0.0 0.0 0.0 0.0 0.0 0.0 0.0 0.0 0.0 0.0 0.0 0.0 0.0 0.0 0.0 0.0 0.0 0.0 0.0 0.0 0.0 0.0 0.0 0.0 0.0 0.0 0.0 0.0 0.0 0.0 0.0 0.0 0.0 0.0 0.0 0.0 0.1 0.0 0.0 0.0 0.0 0.0 0.1 0.1 0.0 0.0 0.0
0.0 0.0 0.0 0.0 0.0 0.0 0.0 0.0 0.0 0.0 0.0 0.0 0.0 0.0 0.0 0.0 0.0 0.0 0.0 0.0 0.0 0.0 0.0 0.0 0.0 0.0 0.0 0.0 0.0 0.0 0.0 0.0 0.0 0.0 0.1 0.0 0.0 0.0 0.0 0.0 0.1 0.0 0.0 0.0 0.0 0.0 0.0
0.0 0.0 0.0 0.0 0.0 0.0 0.0 0.0 0.0 0.0 0.0 0.0 0.0 0.0 0.0 0.0 0.0 0.0 0.0 0.0 0.0 0.0 0.4 0.0 0.0 0.0 0.0 0.0 0.0 0.0 0.0 0.0 0.0 0.0 0.0 0.0 0.0 0.0 0.0 0.2 0.4 0.0 0.0 0.0 0.0 0.0 1.7
0.0 0.0 0.0 0.0 0.0 0.0 0.0 0.0 0.0 0.0 0.0 0.0 0.0 0.0 0.0 0.0 0.0 0.0 0.0 0.0 0.0 0.0 23.1 0.0 0.0 0.0 0.0 0.0 0.0 0.0 0.0 0.0 0.0 0.0 0.0 0.2 0.0 0.0 0.0 0.0 0.0 0.0 0.1 0.0 0.0 0.0 0.0
0.0 0.0 0.0 0.0 0.0 0.0 0.0 0.0 0.0 0.0 0.0 0.0 0.0 0.0 0.0 0.0 0.0 0.0 0.0 0.0 0.0 2.0 22.9 0.0 0.0 0.1 0.0 0.0 0.0 0.0 0.0 0.0 0.0 0.0 0.0 0.0 0.0 0.0 0.0 0.0 0.0 0.0 0.0 0.0 0.5 0.4 2.2
0.0 0.0 0.0 0.0 0.0 0.0 0.0 0.0 0.0 0.0 0.0 0.0 0.0 0.0 0.0 0.0 0.0 0.0 0.0 0.0 36.4 32.1 0.0 0.0 0.0 0.0 0.0 0.3 0.6 0.0 0.0 1.0 0.9 0.1 0.7 0.0 0.0 0.0 0.0 0.0 0.0 0.0 0.0 3.6 4.0 4.4 0.9
0.0 0.0 0.0 0.0 0.0 0.0 0.0 0.0 0.0 0.0 0.0 0.0 0.0 0.0 0.0 0.0 0.0 0.0 0.0 3.5 43.2 6.1 0.0 0.0 0.0 0.0 1.2 1.9 1.3 1.1 0.0 0.3 0.0 0.1 0.3 0.4 2.1 0.0 0.0 0.0 0.0 0.2 0.0 1.0 6.0 4.7 1.4
0.0 0.0 0.0 0.0 0.0 0.0 0.0 0.0 0.0 0.0 0.0 0.0 0.0 0.0 0.0 0.0 0.0 0.0 0.1 46.6 19.6 1.5 0.1 0.2 0.0 0.1 1.2 1.4 2.3 1.9 0.1 0.7 0.0 0.0 1.5 1.9 3.8 0.0 0.0 0.0 0.0 0.0 0.2 0.0 4.3 1.6 5.9
0.0 0.0 0.0 0.0 0.0 0.0 0.0 0.0 0.0 0.0 0.0 0.0 0.0 0.0 0.0 0.0 0.0 0.0 24.4 34.2 8.2 0.0 0.0 0.4 5.0 5.1 5.0 1.5 3.8 3.0 1.6 0.0 0.0 0.0 0.0 5.3 8.9 0.0 0.0 0.0 0.0 0.0 0.0 3.2 7.3 19.0 14.4
0.0 0.0 0.0 0.0 0.0 0.0 0.0 0.0 0.0 0.0 0.0 0.0 0.0 1.3 0.0 0.0 0.0 3.4 47.3 17.2 3.5 0.0 0.0 4.8 9.7 8.3 5.7 6.4 4.7 6.5 5.4 0.0 0.0 0.0 0.0 0.0 10.3 0.4 0.0 0.0 0.0 0.0 0.4 1.0 0.8 3.5 10.9
0.0 0.0 0.0 0.0 0.0 0.0 0.0 0.0 0.0 0.0 0.0 0.0 0.0 24.3 0.0 0.0 16.8 34.1 23.1 7.0 0.0 0.0 0.0 1.8 4.1 7.6 9.4 8.0 11.0 14.2 9.3 1.0 0.0 1.3 1.5 1.3 7.3 5.1 1.7 0.0 0.0 0.0 0.0 0.6 12.5 10.3 12.9
0.0 0.0 0.0 0.0 0.0 0.0 0.0 0.0 0.0 0.0 0.0 0.0 11.6 7.8 0.0 0.0 28.3 16.8 5.3 3.1 2.4 3.4 1.9 4.5 6.5 9.5 10.4 10.8 13.4 9.2 6.3 0.0 0.0 0.0 4.7 1.4 10.6 8.6 6.5 0.0 0.0 1.4 0.0 5.7 14.3 17.2 25.8
0.0 0.0 0.0 0.0 0.0 0.0 0.0 0.0 0.0 0.0 0.0 0.0 6.9 31.8 5.8 5.3 2.4 4.9 6.2 7.0 7.2 0.0 2.4 0.1 7.4 8.9 10.0 6.3 5.9 8.8 6.4 0.0 0.0 0.0 0.0 0.0 9.5 9.2 8.9 8.8 7.1 10.2 6.5 3.9 14.3 29.6 17.8
0.0 0.0 0.0 0.0 0.0 0.0 0.0 0.0 0.0 0.0 0.0 0.0 17.5 29.8 0.0 21.4 16.1 7.6 6.8 9.8 6.4 5.4 0.5 0.4 7.3 5.4 7.2 10.4 5.8 4.1 3.9 2.6 0.0 0.0 0.0 0.3 14.6 8.4 6.4 7.3 3.8 3.9 8.9 7.7 7.7 8.9 14.8
0.0 0.0 0.0 0.0 0.0 0.0 0.0 0.0 0.0 0.0 0.0 0.0 56.3 13.0 3.2 4.4 0.4 6.4 13.9 15.1 7.2 2.5 8.6 4.7 4.8 2.4 3.4 7.4 6.1 5.7 4.8 1.9 4.5 0.0 0.0 0.0 8.2 9.9 7.8 6.0 3.1 7.4 9.4 5.9 4.6 6.3 7.1
0.0 0.0 0.0 0.0 0.0 0.0 0.0 0.0 0.0 0.0 0.0 0.0 1.1 0.0 8.1 4.8 3.3 8.5 7.8 4.5 5.0 5.4 0.6 1.7 3.8 6.2 6.5 4.2 1.1 0.0 1.9 2.2 4.2 5.8 4.9 4.8 7.1 5.8 7.7 2.0 2.9 9.2 8.4 4.9 2.9 1.4 1.7
0.0 0.0 0.0 0.0 0.0 0.0 0.0 0.0 0.0 0.0 0.0 0.0 0.0 0.4 17.0 16.0 8.3 5.2 2.0 2.7 4.9 3.8 7.0 2.8 1.0 3.6 0.0 0.0 0.0 0.0 0.8 0.5 0.4 1.5 2.1 7.4 6.0 8.2 7.1 5.3 14.8 6.0 2.4 0.9 0.2 0.4 0.5
0.0 0.0 0.0 0.0 0.0 0.0 0.0 0.0 0.0 0.0 0.0 0.0 0.0 0.0 12.1 15.1 3.8 4.8 3.9 4.2 1.0 1.9 4.0 2.8 1.2 0.0 0.0 1.4 5.5 7.0 3.9 3.0 1.1 0.4 0.8 2.3 7.1 12.0 11.2 5.8 4.1 1.3 0.9 0.5 0.8 1.0 0.7
0.0 0.0 0.0 0.0 0.0 0.0 0.0 0.0 0.0 0.0 0.0 0.0 0.0 0.0 2.6 18.8 6.8 1.6 5.9 5.1 4.8 4.3 5.1 3.2 0.0 0.0 0.0 4.7 10.6 9.4 5.2 3.1 2.1 1.6 0.0 1.1 4.1 17.1 15.5 10.5 5.0 1.5 0.3 0.1 0.1 1.1 0.6
0.0 0.0 0.0 0.0 0.0 0.0 0.0 0.0 0.0 0.0 0.0 0.0 0.0 0.0 0.5 25.7 0.9 0.9 2.8 3.9 2.0 2.2 6.1 0.4 1.5 1.0 0.9 9.6 10.3 7.9 5.1 3.3 4.9 3.9 3.2 6.2 9.3 19.6 15.9 17.5 5.9 1.0 1.0 0.5 3.7 6.1 1.4
0.0 0.0 0.0 0.0 0.0 0.0 0.0 0.0 0.0 0.0 0.0 0.0 0.0 0.0 0.0 17.4 0.7 0.0 0.2 0.4 0.9 1.3 3.7 1.9 6.4 5.3 10.5 12.5 10.9 8.2 6.5 4.5 2.6 1.5 3.2 5.2 9.3 7.6 12.8 18.1 11.9 2.8 1.9 4.5 3.7 1.0 0.9
0.0 0.0 0.0 0.0 0.0 0.0 0.0 0.0 0.0 0.0 0.0 0.0 4.7 0.0 0.0 2.6 0.3 0.0 0.0 0.0 0.0 0.0 0.4 1.4 4.2 3.9 1.9 9.8 6.6 5.2 3.7 4.4 2.2 6.0 1.1 7.6 4.2 6.3 7.6 12.0 7.9 6.5 5.5 2.4 2.2 2.3 2.2

GFSGBSN_prec_snow_198.txt.gz
Snowfall_Accumulation
0.0 0.0 0.0 0.0 0.0 0.0 0.0 0.0 0.0 0.0 0.0 0.0 0.0 0.0 0.0 0.0 0.0 0.0 0.0 0.0 0.0 0.0 0.0 0.0 0.0 0.0 0.0 0.0 0.0 0.0 0.0 0.0 0.0 0.0 0.0 0.0 0.0 0.0 0.0 0.0 0.0 0.0 0.0 0.0 0.0 0.0 0.0
0.0 0.0 0.0 0.0 0.0 0.0 0.0 0.0 0.0 0.0 0.0 0.0 0.0 0.0 0.0 0.0 0.0 0.0 0.0 0.0 0.0 0.0 0.0 0.0 0.0 0.0 0.0 0.0 0.0 0.0 0.0 0.0 0.0 0.0 0.0 0.0 0.0 0.0 0.0 0.0 0.0 0.0 0.0 0.0 0.0 0.0 0.0
0.0 0.0 0.0 0.0 0.0 0.0 0.0 0.0 0.0 0.0 0.0 0.0 0.0 0.0 0.0 0.0 0.0 0.0 0.0 0.0 0.0 0.0 0.0 0.0 0.0 0.0 0.0 0.0 0.0 0.0 0.0 0.0 0.0 0.0 0.0 0.0 0.0 0.0 0.0 0.0 0.0 0.0 0.0 0.0 0.0 0.0 0.0
0.0 0.0 0.0 0.0 0.0 0.0 0.0 0.0 0.0 0.0 0.0 0.0 0.0 0.0 0.0 0.0 0.0 0.0 0.0 0.0 0.0 0.0 0.0 0.0 0.0 0.0 0.0 0.0 0.0 0.0 0.0 0.0 0.0 0.0 0.0 0.0 0.0 0.0 0.0 0.0 0.0 0.0 0.0 0.0 0.0 0.0 0.0
0.0 0.0 0.0 0.0 0.0 0.0 0.0 0.0 0.0 0.0 0.0 0.0 0.0 0.0 0.0 0.0 0.0 0.0 0.0 0.0 0.0 0.0 0.0 0.0 0.0 0.0 0.0 0.0 0.0 0.0 0.0 0.0 0.0 0.0 0.0 0.0 0.0 0.0 0.0 0.0 0.0 0.0 0.0 0.0 0.0 0.0 0.0
0.0 0.0 0.0 0.0 0.0 0.0 0.0 0.0 0.0 0.0 0.0 0.0 0.0 0.0 0.0 0.0 0.0 0.0 0.0 0.0 0.0 0.0 0.0 0.0 0.0 0.0 0.0 0.0 0.0 0.0 0.0 0.0 0.0 0.0 0.0 0.0 0.0 0.0 0.0 0.0 0.0 0.0 0.0 0.0 0.0 0.0 0.0
0.0 0.0 0.0 0.0 0.0 0.0 0.0 0.0 0.0 0.0 0.0 0.0 0.0 0.0 0.0 0.0 0.0 0.0 0.0 0.0 0.0 0.0 0.0 0.0 0.0 0.0 0.0 0.0 0.0 0.0 0.0 0.0 0.0 0.0 0.0 0.0 0.0 0.0 0.0 0.0 0.1 0.0 0.0 0.0 0.0 0.0 0.0
0.0 0.0 0.0 0.0 0.0 0.0 0.0 0.0 0.0 0.0 0.0 0.0 0.0 0.0 0.0 0.0 0.0 0.0 0.0 0.0 0.0 0.0 0.0 0.0 0.0 0.0 0.0 0.0 0.0 0.0 0.0 0.0 0.0 0.0 0.0 0.0 0.1 0.0 0.0 0.0 0.0 0.0 0.1 0.1 0.0 0.0 0.0
0.0 0.0 0.0 0.0 0.0 0.0 0.0 0.0 0.0 0.0 0.0 0.0 0.0 0.0 0.0 0.0 0.0 0.0 0.0 0.0 0.0 0.0 0.0 0.0 0.0 0.0 0.0 0.0 0.0 0.0 0.0 0.0 0.0 0.0 0.1 0.0 0.0 0.0 0.0 0.0 0.1 0.0 0.0 0.0 0.0 0.0 0.0
0.0 0.0 0.0 0.0 0.0 0.0 0.0 0.0 0.0 0.0 0.0 0.0 0.0 0.0 0.0 0.0 0.0 0.0 0.0 0.0 0.0 0.0 0.4 0.0 0.0 0.0 0.0 0.0 0.0 0.0 0.0 0.0 0.0 0.0 0.0 0.0 0.0 0.0 0.0 0.2 0.4 0.0 0.0 0.0 0.0 0.0 1.7
0.0 0.0 0.0 0.0 0.0 0.0 0.0 0.0 0.0 0.0 0.0 0.0 0.0 0.0 0.0 0.0 0.0 0.0 0.0 0.0 0.0 0.0 28.2 0.0 0.0 0.0 0.0 0.0 0.0 0.0 0.0 0.0 0.0 0.0 0.0 0.2 0.0 0.0 0.0 0.0 0.0 0.0 0.1 0.0 0.0 0.0 0.0
0.0 0.0 0.0 0.0 0.0 0.0 0.0 0.0 0.0 0.0 0.0 0.0 0.0 0.0 0.0 0.0 0.0 0.0 0.0 0.0 0.0 2.0 27.1 0.0 0.0 0.1 0.0 0.0 0.0 0.0 0.0 0.0 0.0 0.0 0.0 0.0 0.0 0.0 0.0 0.0 0.0 0.0 0.0 0.0 0.5 0.4 2.2
0.0 0.0 0.0 0.0 0.0 0.0 0.0 0.0 0.0 0.0 0.0 0.0 0.0 0.0 0.0 0.0 0.0 0.0 0.0 0.0 39.9 36.8 0.0 0.0 0.0 0.0 0.0 0.3 0.6 0.0 0.0 1.0 0.9 0.1 0.7 0.0 0.0 0.0 0.0 0.0 0.0 0.0 0.0 3.9 4.4 4.9 0.9
0.0 0.0 0.0 0.0 0.0 0.0 0.0 0.0 0.0 0.0 0.0 0.0 0.0 0.0 0.0 0.0 0.0 0.0 0.0 5.7 47.2 6.1 0.0 0.0 0.0 0.0 1.2 1.9 1.3 1.1 0.0 0.3 0.0 0.1 0.3 0.4 2.1 0.0 0.0 0.0 0.0 0.2 0.0 1.0 6.3 4.7 1.4
0.0 0.0 0.0 0.0 0.0 0.0 0.0 0.0 0.0 0.0 0.0 0.0 0.0 0.0 0.0 0.0 0.0 0.0 0.1 49.8 21.9 2.0 0.1 0.5 0.0 0.1 1.2 1.4 2.3 1.9 0.1 0.7 0.0 0.9 2.9 1.9 3.8 0.0 0.0 0.0 0.0 0.0 0.2 0.0 4.3 1.6 5.9
0.0 0.0 0.0 0.0 0.0 0.0 0.0 0.0 0.0 0.0 0.0 0.0 0.0 0.0 0.0 0.0 0.0 0.0 26.6 36.2 8.8 0.0 0.0 0.4 6.2 6.5 6.5 2.6 4.6 3.8 1.6 0.0 0.0 0.0 0.0 8.5 11.7 0.0 0.0 0.0 0.0 0.0 0.0 3.2 7.3 20.7 15.6
0.0 0.0 0.0 0.0 0.0 0.0 0.0 0.0 0.0 0.0 0.0 0.0 0.0 1.3 0.0 0.0 0.0 3.4 48.1 17.5 3.5 0.0 0.0 4.8 10.6 9.8 6.5 7.0 6.1 7.9 6.9 0.0 0.0 0.0 0.0 1.7 12.4 1.2 0.0 0.0 0.5 0.0 0.4 1.0 0.8 6.4 14.2
0.0 0.0 0.0 0.0 0.0 0.0 0.0 0.0 0.0 0.0 0.0 0.0 0.0 24.4 0.0 0.0 17.2 34.4 23.3 7.0 0.0 0.0 0.0 1.8 4.1 7.6 9.9 8.3 11.6 14.8 9.9 1.0 0.0 1.3 3.0 2.4 8.7 6.2 2.1 0.0 0.0 0.0 2.4 4.0 17.2 14.9 17.0
0.0 0.0 0.0 0.0 0.0 0.0 0.0 0.0 0.0 0.0 0.0 0.0 11.8 7.8 0.0 0.0 28.5 16.9 5.3 3.1 2.4 3.5 1.9 4.5 7.0 9.5 10.4 10.9 13.6 9.3 6.4 0.0 0.0 0.0 5.1 1.7 11.5 9.4 6.5 0.0 0.0 2.2 0.4 6.0 15.2 18.9 27.2
0.0 0.0 0.0 0.0 0.0 0.0 0.0 0.0 0.0 0.0 0.0 0.0 6.9 32.0 5.8 5.3 2.4 4.9 6.3 7.0 7.2 0.0 2.4 0.1 7.9 8.9 10.4 6.3 6.2 8.8 6.4 0.0 0.0 0.0 0.0 0.0 9.5 9.2 8.9 8.8 7.1 10.4 6.7 3.9 14.3 30.5 18.8
0.0 0.0 0.0 0.0 0.0 0.0 0.0 0.0 0.0 0.0 0.0 0.0 17.9 29.9 0.0 21.7 16.3 7.6 6.9 9.8 6.4 5.4 0.5 0.4 7.7 5.8 7.6 10.8 5.9 4.3 3.9 2.6 0.0 0.0 0.0 0.3 14.6 8.4 6.4 7.3 3.8 3.9 8.9 7.7 7.7 9.0 14.8
0.0 0.0 0.0 0.0 0.0 0.0 0.0 0.0 0.0 0.0 0.0 0.0 56.6 13.1 3.3 4.5 0.4 6.8 14.5 15.1 7.2 2.5 8.7 4.7 4.8 2.4 3.8 8.0 6.5 5.7 4.9 1.9 4.8 0.0 0.0 0.3 8.7 10.0 7.8 6.0 3.1 7.4 9.4 5.9 4.6 6.3 7.1
0.0 0.0 0.0 0.0 0.0 0.0 0.0 0.0 0.0 0.0 0.0 0.0 1.1 0.0 8.8 4.8 3.7 8.9 7.8 4.8 5.2 5.8 0.6 1.7 4.3 7.0 6.5 4.2 1.1 1.1 1.9 2.2 4.2 5.8 4.9 4.8 7.1 5.8 7.7 2.0 2.9 9.2 8.4 4.9 2.9 1.4 1.7
0.0 0.0 0.0 0.0 0.0 0.0 0.0 0.0 0.0 0.0 0.0 0.0 0.0 0.4 18.3 16.6 8.6 5.2 2.0 2.7 5.2 4.3 7.6 2.8 1.0 3.8 0.0 0.0 0.0 0.0 0.9 0.5 0.4 1.5 2.1 7.4 6.0 8.2 7.1 5.3 14.9 6.0 2.4 0.9 0.2 0.4 0.5
0.0 0.0 0.0 0.0 0.0 0.0 0.0 0.0 0.0 0.0 0.0 0.0 0.0 0.0 12.8 15.4 4.1 4.8 4.1 4.2 1.0 2.8 4.5 2.8 1.2 0.0 0.0 1.4 5.6 7.0 3.9 3.1 1.1 0.4 0.8 2.3 7.1 12.2 11.3 5.8 4.1 1.3 0.9 0.5 0.8 1.0 0.7
0.0 0.0 0.0 0.0 0.0 0.0 0.0 0.0 0.0 0.0 0.0 0.0 0.0 0.0 2.6 19.5 6.8 1.6 6.6 5.1 5.7 4.3 5.6 3.5 0.0 0.0 0.0 4.8 10.8 9.4 5.2 3.1 2.1 1.6 0.0 1.1 4.1 17.9 15.9 10.8 5.0 1.5 0.3 0.1 0.1 1.1 0.6
0.0 0.0 0.0 0.0 0.0 0.0 0.0 0.0 0.0 0.0 0.0 0.0 0.0 0.0 0.5 26.2 0.9 1.4 3.3 4.7 3.0 2.8 6.4 0.7 1.7 1.2 0.9 9.9 10.6 8.0 5.2 3.3 5.1 3.9 3.2 6.5 9.7 20.9 17.7 18.9 6.6 1.0 1.0 0.5 4.2 6.1 1.4
0.0 0.0 0.0 0.0 0.0 0.0 0.0 0.0 0.0 0.0 0.0 0.0 0.0 0.0 0.0 17.4 0.7 0.0 0.2 0.4 1.7 2.1 4.5 2.9 6.9 5.6 11.1 13.1 11.4 9.0 7.8 5.9 3.3 2.0 3.2 5.4 9.4 8.2 12.8 18.1 13.6 2.8 1.9 4.5 3.7 1.0 0.9
0.0 0.0 0.0 0.0 0.0 0.0 0.0 0.0 0.0 0.0 0.0 0.0 4.7 0.0 0.0 2.6 0.3 0.0 0.0 0.0 0.0 0.0 1.0 1.4 4.9 3.9 2.5 10.4 7.8 5.9 4.2 4.7 2.3 6.2 1.2 7.7 4.3 6.3 7.6 12.1 7.9 6.5 5.5 2.4 2.2 2.3 2.2

GFSGBSN_prec_snow_201.txt.gz
Snowfall_Accumulation
0.0 0.0 0.0 0.0 0.0 0.0 0.0 0.0 0.0 0.0 0.0 0.0 0.0 0.0 0.0 0.0 0.0 0.0 0.0 0.0 0.0 0.0 0.0 0.0 0.0 0.0 0.0 0.0 0.0 0.0 0.0 0.0 0.0 0.0 0.0 0.0 0.0 0.0 0.0 0.0 0.0 0.0 0.0 0.0 0.0 0.0 0.0
0.0 0.0 0.0 0.0 0.0 0.0 0.0 0.0 0.0 0.0 0.0 0.0 0.0 0.0 0.0 0.0 0.0 0.0 0.0 0.0 0.0 0.0 0.0 0.0 0.0 0.0 0.0 0.0 0.0 0.0 0.0 0.0 0.0 0.0 0.0 0.0 0.0 0.0 0.0 0.0 0.0 0.0 0.0 0.0 0.0 0.0 0.0
0.0 0.0 0.0 0.0 0.0 0.0 0.0 0.0 0.0 0.0 0.0 0.0 0.0 0.0 0.0 0.0 0.0 0.0 0.0 0.0 0.0 0.0 0.0 0.0 0.0 0.0 0.0 0.0 0.0 0.0 0.0 0.0 0.0 0.0 0.0 0.0 0.0 0.0 0.0 0.0 0.0 0.0 0.0 0.0 0.0 0.0 0.0
0.0 0.0 0.0 0.0 0.0 0.0 0.0 0.0 0.0 0.0 0.0 0.0 0.0 0.0 0.0 0.0 0.0 0.0 0.0 0.0 0.0 0.0 0.0 0.0 0.0 0.0 0.0 0.0 0.0 0.0 0.0 0.0 0.0 0.0 0.0 0.0 0.0 0.0 0.0 0.0 0.0 0.0 0.0 0.0 0.0 0.0 0.0
0.0 0.0 0.0 0.0 0.0 0.0 0.0 0.0 0.0 0.0 0.0 0.0 0.0 0.0 0.0 0.0 0.0 0.0 0.0 0.0 0.0 0.0 0.0 0.0 0.0 0.0 0.0 0.0 0.0 0.0 0.0 0.0 0.0 0.0 0.0 0.0 0.0 0.0 0.0 0.0 0.0 0.0 0.0 0.0 0.0 0.0 0.0
0.0 0.0 0.0 0.0 0.0 0.0 0.0 0.0 0.0 0.0 0.0 0.0 0.0 0.0 0.0 0.0 0.0 0.0 0.0 0.0 0.0 0.0 0.0 0.0 0.0 0.0 0.0 0.0 0.0 0.0 0.0 0.0 0.0 0.0 0.0 0.0 0.0 0.0 0.0 0.0 0.0 0.0 0.0 0.0 0.0 0.0 0.0
0.0 0.0 0.0 0.0 0.0 0.0 0.0 0.0 0.0 0.0 0.0 0.0 0.0 0.0 0.0 0.0 0.0 0.0 0.0 0.0 0.0 0.0 0.0 0.0 0.0 0.0 0.0 0.0 0.0 0.0 0.0 0.0 0.0 0.0 0.0 0.0 0.0 0.0 0.0 0.0 0.1 0.0 0.0 0.0 0.0 0.0 0.0
0.0 0.0 0.0 0.0 0.0 0.0 0.0 0.0 0.0 0.0 0.0 0.0 0.0 0.0 0.0 0.0 0.0 0.0 0.0 0.0 0.0 0.0 0.0 0.0 0.0 0.0 0.0 0.0 0.0 0.0 0.0 0.0 0.0 0.0 0.0 0.0 0.1 0.0 0.0 0.0 0.0 0.0 0.1 0.1 0.0 0.0 0.0
0.0 0.0 0.0 0.0 0.0 0.0 0.0 0.0 0.0 0.0 0.0 0.0 0.0 0.0 0.0 0.0 0.0 0.0 0.0 0.0 0.0 0.0 0.0 0.0 0.0 0.0 0.0 0.0 0.0 0.0 0.0 0.0 0.0 0.0 0.1 0.0 0.0 0.0 0.0 0.0 0.1 0.0 0.0 0.0 0.0 0.0 0.0
0.0 0.0 0.0 0.0 0.0 0.0 0.0 0.0 0.0 0.0 0.0 0.0 0.0 0.0 0.0 0.0 0.0 0.0 0.0 0.0 0.0 0.0 0.4 0.0 0.0 0.0 0.0 0.0 0.0 0.0 0.0 0.0 0.0 0.0 0.0 0.0 0.0 0.0 0.0 0.2 0.4 0.0 0.0 0.0 0.0 0.0 1.7
0.0 0.0 0.0 0.0 0.0 0.0 0.0 0.0 0.0 0.0 0.0 0.0 0.0 0.0 0.0 0.0 0.0 0.0 0.0 0.0 0.0 0.0 35.8 0.0 0.0 0.0 0.0 0.0 0.0 0.0 0.0 0.0 0.0 0.0 0.0 0.2 0.0 0.0 0.0 0.0 0.0 0.0 0.1 0.0 0.0 0.0 0.0
0.0 0.0 0.0 0.0 0.0 0.0 0.0 0.0 0.0 0.0 0.0 0.0 0.0 0.0 0.0 0.0 0.0 0.0 0.0 0.0 0.0 2.0 33.4 0.0 0.0 0.1 0.0 0.0 0.0 0.0 0.0 0.0 0.0 0.0 0.0 0.0 0.0 0.0 0.0 0.0 0.0 0.0 0.0 0.0 0.5 0.4 2.2
0.0 0.0 0.0 0.0 0.0 0.0 0.0 0.0 0.0 0.0 0.0 0.0 0.0 0.0 0.0 0.0 0.0 0.0 0.0 0.0 43.7 42.0 0.0 0.0 0.0 0.0 0.0 0.3 0.6 0.0 0.0 1.0 0.9 0.1 0.7 0.0 0.0 0.0 0.0 0.0 0.0 0.0 0.0 4.4 4.9 5.1 0.9
0.0 0.0 0.0 0.0 0.0 0.0 0.0 0.0 0.0 0.0 0.0 0.0 0.0 0.0 0.0 0.0 0.0 0.0 0.0 5.7 51.2 7.8 0.0 0.0 0.0 0.0 1.2 1.9 1.3 1.1 0.0 0.3 0.0 0.1 0.3 0.4 2.1 0.0 0.0 0.0 0.0 0.2 0.0 1.0 7.6 5.1 1.4
0.0 0.0 0.0 0.0 0.0 0.0 0.0 0.0 0.0 0.0 0.0 0.0 0.0 0.0 0.0 0.0 0.0 0.0 0.1 52.4 23.5 2.0 0.1 0.5 0.0 0.1 1.2 1.4 2.3 1.9 0.1 0.7 0.0 0.9 4.5 3.9 5.1 0.0 0.0 0.0 0.0 0.0 0.2 0.0 4.3 1.6 5.9
0.0 0.0 0.0 0.0 0.0 0.0 0.0 0.0 0.0 0.0 0.0 0.0 0.0 0.0 0.0 0.0 0.0 0.0 28.2 37.7 9.1 0.0 0.0 0.4 7.4 7.2 7.1 2.6 4.6 4.6 1.6 0.0 0.0 0.0 0.0 10.9 13.2 0.0 0.0 0.0 0.0 0.0 0.0 3.2 7.3 22.7 17.8
0.0 0.0 0.0 0.0 0.0 0.0 0.0 0.0 0.0 0.0 0.0 0.0 0.0 1.3 0.0 0.0 0.0 3.4 48.3 17.5 3.5 0.0 0.0 5.5 10.9 10.8 7.0 7.3 7.1 9.0 7.7 0.0 0.0 0.0 0.0 2.2 13.6 1.2 0.0 0.0 0.5 1.2 2.1 1.0 5.4 11.7 19.6
0.0 0.0 0.0 0.0 0.0 0.0 0.0 0.0 0.0 0.0 0.0 0.0 0.0 24.4 0.0 0.0 17.2 34.4 23.4 7.1 0.0 0.0 0.0 1.8 4.1 7.6 9.9 8.3 11.6 15.7 10.5 1.0 0.0 1.3 3.6 2.4 9.6 6.6 2.1 0.0 0.0 0.0 4.6 5.8 17.2 17.9 19.5
0.0 0.0 0.0 0.0 0.0 0.0 0.0 0.0 0.0 0.0 0.0 0.0 11.9 7.8 0.0 0.0 28.7 16.9 5.3 3.1 2.4 3.5 1.9 4.5 7.0 9.5 10.4 11.1 13.9 9.3 6.4 0.0 0.0 0.0 5.1 2.2 12.0 9.9 6.5 0.0 0.0 3.3 1.7 7.5 17.0 20.9 28.8
0.0 0.0 0.0 0.0 0.0 0.0 0.0 0.0 0.0 0.0 0.0 0.0 6.9 32.0 5.8 5.3 2.4 4.9 6.3 7.0 7.2 0.0 2.4 0.1 7.9 8.9 10.8 6.6 6.4 8.8 6.4 0.0 0.0 0.0 0.0 0.0 9.5 9.2 8.9 8.8 7.1 10.4 6.7 3.9 14.7 31.2 19.3
0.0 0.0 0.0 0.0 0.0 0.0 0.0 0.0 0.0 0.0 0.0 0.0 17.9 29.9 0.0 21.7 16.3 7.6 7.0 9.8 6.4 5.4 0.5 0.4 7.9 6.0 8.0 11.1 6.2 4.3 3.9 2.6 0.0 0.0 0.0 0.4 14.6 8.4 6.4 7.3 3.8 3.9 9.0 7.7 7.9 9.2 14.8
0.0 0.0 0.0 0.0 0.0 0.0 0.0 0.0 0.0 0.0 0.0 0.0 57.2 13.1 3.3 4.5 0.4 6.8 14.5 15.1 7.4 2.5 8.7 4.7 4.8 2.4 3.9 8.0 6.9 5.9 5.0 2.0 4.8 0.0 0.5 0.6 8.7 10.0 8.1 6.0 3.1 7.4 9.4 5.9 4.7 6.3 7.1
0.0 0.0 0.0 0.0 0.0 0.0 0.0 0.0 0.0 0.0 0.0 0.0 1.1 0.0 8.8 4.8 3.7 9.1 7.8 4.8 5.2 6.1 0.6 1.8 4.5 7.2 6.5 4.2 1.1 1.1 1.9 2.2 4.2 5.9 5.2 5.2 7.6 5.9 7.7 2.0 2.9 9.2 8.4 4.9 2.9 1.4 1.7
0.0 0.0 0.0 0.0 0.0 0.0 0.0 0.0 0.0 0.0 0.0 0.0 0.0 0.4 18.8 16.9 8.6 5.2 2.0 2.8 5.2 4.3 7.6 2.8 1.3 4.3 0.0 0.0 0.0 0.0 0.9 0.5 0.4 1.8 2.4 7.6 6.0 8.2 7.1 5.3 14.9 6.0 2.4 0.9 0.2 0.4 0.5
0.0 0.0 0.0 0.0 0.0 0.0 0.0 0.0 0.0 0.0 0.0 0.0 0.0 0.0 13.2 15.4 4.1 4.8 4.5 4.3 1.0 2.8 4.5 3.0 1.2 0.0 0.0 1.4 5.6 7.0 3.9 3.1 1.1 0.4 0.8 2.3 7.1 12.3 11.3 5.8 4.1 1.3 0.9 0.5 0.8 1.0 0.7
0.0 0.0 0.0 0.0 0.0 0.0 0.0 0.0 0.0 0.0 0.0 0.0 0.0 0.0 3.8 20.0 6.8 1.6 6.6 5.1 5.7 4.3 5.6 3.5 0.0 0.0 0.0 5.0 11.0 9.4 5.2 3.1 2.1 1.6 0.0 1.1 4.4 18.3 16.2 11.1 5.0 1.5 0.3 0.1 0.1 1.2 0.6
0.0 0.0 0.0 0.0 0.0 0.0 0.0 0.0 0.0 0.0 0.0 0.0 0.0 0.0 2.7 27.7 0.9 1.4 3.7 5.2 3.4 3.6 6.4 1.4 1.7 1.2 0.9 9.9 10.6 8.0 5.2 3.3 5.1 3.9 3.2 6.5 9.7 20.9 17.7 20.2 7.8 1.6 1.0 0.5 4.4 6.1 1.4
0.0 0.0 0.0 0.0 0.0 0.0 0.0 0.0 0.0 0.0 0.0 0.0 0.0 0.0 0.0 18.7 1.0 0.0 0.2 0.7 2.0 2.1 6.2 3.8 6.9 6.3 11.6 13.3 11.4 9.1 7.8 5.9 3.3 2.0 3.8 5.7 9.7 8.9 13.2 18.4 13.6 2.8 1.9 4.5 3.7 1.0 0.9
0.0 0.0 0.0 0.0 0.0 0.0 0.0 0.0 0.0 0.0 0.0 0.0 4.7 0.0 0.0 2.6 0.3 0.0 0.0 0.0 0.0 0.0 1.0 1.8 4.9 4.8 3.4 10.9 8.3 5.9 4.7 5.8 3.1 6.7 1.2 8.0 4.3 6.3 7.6 12.1 7.9 6.5 5.5 2.4 2.2 2.3 2.2

GFSGBSN_prec_snow_204.txt.gz
Snowfall_Accumulation
0.0 0.0 0.0 0.0 0.0 0.0 0.0 0.0 0.0 0.0 0.0 0.0 0.0 0.0 0.0 0.0 0.0 0.0 0.0 0.0 0.0 0.0 0.0 0.0 0.0 0.0 0.0 0.0 0.0 0.0 0.0 0.0 0.0 0.0 0.0 0.0 0.0 0.0 0.0 0.0 0.0 0.0 0.0 0.0 0.0 0.0 0.0
0.0 0.0 0.0 0.0 0.0 0.0 0.0 0.0 0.0 0.0 0.0 0.0 0.0 0.0 0.0 0.0 0.0 0.0 0.0 0.0 0.0 0.0 0.0 0.0 0.0 0.0 0.0 0.0 0.0 0.0 0.0 0.0 0.0 0.0 0.0 0.0 0.0 0.0 0.0 0.0 0.0 0.0 0.0 0.0 0.0 0.0 0.0
0.0 0.0 0.0 0.0 0.0 0.0 0.0 0.0 0.0 0.0 0.0 0.0 0.0 0.0 0.0 0.0 0.0 0.0 0.0 0.0 0.0 0.0 0.0 0.0 0.0 0.0 0.0 0.0 0.0 0.0 0.0 0.0 0.0 0.0 0.0 0.0 0.0 0.0 0.0 0.0 0.0 0.0 0.0 0.0 0.0 0.0 0.0
0.0 0.0 0.0 0.0 0.0 0.0 0.0 0.0 0.0 0.0 0.0 0.0 0.0 0.0 0.0 0.0 0.0 0.0 0.0 0.0 0.0 0.0 0.0 0.0 0.0 0.0 0.0 0.0 0.0 0.0 0.0 0.0 0.0 0.0 0.0 0.0 0.0 0.0 0.0 0.0 0.0 0.0 0.0 0.0 0.0 0.0 0.0
0.0 0.0 0.0 0.0 0.0 0.0 0.0 0.0 0.0 0.0 0.0 0.0 0.0 0.0 0.0 0.0 0.0 0.0 0.0 0.0 0.0 0.0 0.0 0.0 0.0 0.0 0.0 0.0 0.0 0.0 0.0 0.0 0.0 0.0 0.0 0.0 0.0 0.0 0.0 0.0 0.0 0.0 0.0 0.0 0.0 0.0 0.0
0.0 0.0 0.0 0.0 0.0 0.0 0.0 0.0 0.0 0.0 0.0 0.0 0.0 0.0 0.0 0.0 0.0 0.0 0.0 0.0 0.0 0.0 0.0 0.0 0.0 0.0 0.0 0.0 0.0 0.0 0.0 0.0 0.0 0.0 0.0 0.0 0.0 0.0 0.0 0.0 0.0 0.0 0.0 0.0 0.0 0.0 0.0
0.0 0.0 0.0 0.0 0.0 0.0 0.0 0.0 0.0 0.0 0.0 0.0 0.0 0.0 0.0 0.0 0.0 0.0 0.0 0.0 0.0 0.0 0.0 0.0 0.0 0.0 0.0 0.0 0.0 0.0 0.0 0.0 0.0 0.0 0.0 0.0 0.0 0.0 0.0 0.0 0.1 0.0 0.0 0.0 0.0 0.0 0.0
0.0 0.0 0.0 0.0 0.0 0.0 0.0 0.0 0.0 0.0 0.0 0.0 0.0 0.0 0.0 0.0 0.0 0.0 0.0 0.0 0.0 0.0 0.0 0.0 0.0 0.0 0.0 0.0 0.0 0.0 0.0 0.0 0.0 0.0 0.0 0.0 0.1 0.0 0.0 0.0 0.0 0.0 0.1 0.1 0.0 0.0 0.0
0.0 0.0 0.0 0.0 0.0 0.0 0.0 0.0 0.0 0.0 0.0 0.0 0.0 0.0 0.0 0.0 0.0 0.0 0.0 0.0 0.0 0.0 0.0 0.0 0.0 0.0 0.0 0.0 0.0 0.0 0.0 0.0 0.0 0.0 0.1 0.0 0.0 0.0 0.0 0.0 0.1 0.0 0.0 0.0 0.0 0.0 0.0
0.0 0.0 0.0 0.0 0.0 0.0 0.0 0.0 0.0 0.0 0.0 0.0 0.0 0.0 0.0 0.0 0.0 0.0 0.0 0.0 0.0 0.0 0.4 0.0 0.0 0.0 0.0 0.0 0.0 0.0 0.0 0.0 0.0 0.0 0.0 0.0 0.0 0.0 0.0 0.2 0.4 0.0 0.0 0.0 0.0 0.0 1.7
0.0 0.0 0.0 0.0 0.0 0.0 0.0 0.0 0.0 0.0 0.0 0.0 0.0 0.0 0.0 0.0 0.0 0.0 0.0 0.0 0.0 0.0 44.2 0.0 0.0 0.0 0.0 0.0 0.0 0.0 0.0 0.0 0.0 0.0 0.0 0.2 0.0 0.0 0.0 0.0 0.0 0.0 0.1 0.0 0.0 0.0 0.0
0.0 0.0 0.0 0.0 0.0 0.0 0.0 0.0 0.0 0.0 0.0 0.0 0.0 0.0 0.0 0.0 0.0 0.0 0.0 0.0 0.0 2.0 39.0 0.0 0.0 0.1 0.0 0.0 0.0 0.0 0.0 0.0 0.0 0.0 0.0 0.0 0.0 0.0 0.0 0.0 0.0 0.0 0.0 0.0 0.5 0.4 2.2
0.0 0.0 0.0 0.0 0.0 0.0 0.0 0.0 0.0 0.0 0.0 0.0 0.0 0.0 0.0 0.0 0.0 0.0 0.0 0.0 47.1 46.2 0.0 0.0 0.0 0.0 0.0 0.3 0.6 0.0 0.0 1.0 0.9 0.1 0.7 0.0 0.0 0.0 0.0 0.0 0.0 0.0 0.0 4.9 5.3 5.3 0.9
0.0 0.0 0.0 0.0 0.0 0.0 0.0 0.0 0.0 0.0 0.0 0.0 0.0 0.0 0.0 0.0 0.0 0.0 0.0 5.7 55.3 9.4 0.0 0.0 0.0 0.0 1.2 1.9 1.3 1.1 0.0 0.3 0.0 0.1 0.3 0.4 2.1 0.0 0.0 0.0 0.0 0.2 0.0 1.0 8.7 5.7 1.4
0.0 0.0 0.0 0.0 0.0 0.0 0.0 0.0 0.0 0.0 0.0 0.0 0.0 0.0 0.0 0.0 0.0 0.0 2.7 55.2 25.2 2.5 0.1 0.5 0.0 0.5 1.2 1.4 2.3 1.9 0.1 0.7 0.0 0.9 4.5 5.5 6.3 0.0 0.0 0.0 0.0 0.0 0.2 0.0 4.3 1.6 6.8
0.0 0.0 0.0 0.0 0.0 0.0 0.0 0.0 0.0 0.0 0.0 0.0 0.0 0.0 0.0 0.0 0.0 0.0 29.8 39.1 9.5 0.0 0.0 0.4 8.3 8.1 8.0 3.6 6.3 5.8 2.5 0.0 0.0 0.0 0.0 12.2 14.4 0.0 0.0 0.0 0.0 0.0 0.0 3.2 7.3 25.1 20.5
0.0 0.0 0.0 0.0 0.0 0.0 0.0 0.0 0.0 0.0 0.0 0.0 0.0 1.3 0.0 0.0 0.0 3.4 48.6 17.5 3.5 0.0 0.0 6.7 12.1 11.8 7.5 7.3 7.8 10.1 8.6 0.0 0.0 0.0 0.0 2.2 13.6 1.2 0.0 0.0 0.8 1.6 3.1 2.2 7.1 14.3 22.1
0.0 0.0 0.0 0.0 0.0 0.0 0.0 0.0 0.0 0.0 0.0 0.0 0.0 24.4 0.0 0.0 17.2 34.4 23.5 7.1 0.0 0.0 0.0 2.2 4.1 7.8 9.9 8.3 11.7 16.0 10.5 1.0 0.0 1.3 3.8 2.8 10.9 7.2 2.1 0.0 0.0 0.0 4.6 5.8 18.1 19.2 20.7
0.0 0.0 0.0 0.0 0.0 0.0 0.0 0.0 0.0 0.0 0.0 0.0 11.9 7.8 0.0 0.0 29.0 16.9 5.3 3.1 2.4 3.5 1.9 4.7 7.0 9.5 10.6 11.1 13.9 9.4 6.4 0.0 0.0 0.0 5.1 2.3 12.8 10.6 6.5 0.0 0.0 3.3 1.7 7.5 18.0 21.9 29.7
0.0 0.0 0.0 0.0 0.0 0.0 0.0 0.0 0.0 0.0 0.0 0.0 6.9 32.0 5.8 5.3 2.5 4.9 6.3 7.0 7.2 0.0 2.4 0.1 8.0 9.1 10.9 6.6 6.4 8.8 6.6 0.0 0.0 0.0 0.0 0.0 9.5 9.2 8.9 8.8 7.1 10.5 6.8 4.2 15.2 31.7 19.3
0.0 0.0 0.0 0.0 0.0 0.0 0.0 0.0 0.0 0.0 0.0 0.0 18.3 30.0 0.0 21.8 16.3 7.6 7.1 9.8 6.4 5.4 0.5 0.4 7.9 6.0 8.0 11.3 6.3 4.3 3.9 2.6 0.0 0.0 0.0 0.4 15.4 8.5 6.4 7.3 3.8 3.9 9.0 7.8 7.9 9.2 14.8
0.0 0.0 0.0 0.0 0.0 0.0 0.0 0.0 0.0 0.0 0.0 0.0 57.8 13.2 3.3 4.5 0.4 6.8 14.6 15.2 7.4 2.5 8.7 4.7 4.9 2.4 3.9 8.0 6.9 5.9 5.0 2.0 4.8 0.0 0.5 0.6 8.7 10.0 8.3 6.0 3.1 7.4 9.4 5.9 4.7 6.3 7.1
0.0 0.0 0.0 0.0 0.0 0.0 0.0 0.0 0.0 0.0 0.0 0.0 1.1 0.0 9.1 4.8 3.7 9.1 7.8 4.8 5.2 6.1 0.6 1.8 4.6 7.2 6.5 4.2 1.1 1.1 1.9 2.2 4.2 5.9 5.2 5.8 8.6 6.8 8.4 2.0 3.0 9.2 8.4 4.9 2.9 1.4 1.7
0.0 0.0 0.0 0.0 0.0 0.0 0.0 0.0 0.0 0.0 0.0 0.0 0.0 0.4 19.2 17.4 8.6 5.2 2.0 2.8 5.2 4.3 7.7 2.8 1.3 4.3 0.0 0.0 0.0 0.0 0.9 0.5 0.4 1.8 2.4 7.6 7.0 8.9 7.4 5.3 15.0 6.0 2.4 0.9 0.2 0.4 0.5
0.0 0.0 0.0 0.0 0.0 0.0 0.0 0.0 0.0 0.0 0.0 0.0 0.0 0.0 13.5 15.5 4.1 4.8 4.5 4.7 1.0 2.8 4.5 3.0 1.2 0.0 0.0 1.4 6.0 7.0 3.9 3.1 1.1 0.4 0.8 2.3 7.1 13.2 11.7 5.8 4.1 1.3 0.9 0.5 0.8 1.0 0.7
0.0 0.0 0.0 0.0 0.0 0.0 0.0 0.0 0.0 0.0 0.0 0.0 0.0 0.0 5.0 20.4 6.8 1.6 6.6 5.1 5.7 4.3 5.6 3.5 0.0 0.0 0.0 5.4 11.6 9.6 5.2 3.1 2.1 1.6 0.0 1.1 4.4 18.3 16.7 11.6 5.0 1.5 0.3 0.1 0.1 1.2 0.6
0.0 0.0 0.0 0.0 0.0 0.0 0.0 0.0 0.0 0.0 0.0 0.0 0.0 0.0 4.2 29.5 0.9 1.4 3.7 5.3 3.6 3.9 6.5 1.4 1.7 1.2 0.9 10.6 10.8 8.0 5.2 3.3 5.1 3.9 3.2 6.5 9.7 21.0 17.9 20.6 8.1 1.6 1.0 0.5 4.6 6.1 1.4
0.0 0.0 0.0 0.0 0.0 0.0 0.0 0.0 0.0 0.0 0.0 0.0 0.0 0.0 0.0 19.4 1.1 0.0 0.2 0.7 2.2 2.1 6.2 3.8 9.1 6.9 12.3 14.0 11.5 9.1 7.8 5.9 3.3 2.0 4.6 6.4 10.0 9.3 13.3 18.5 13.7 2.8 1.9 4.5 3.7 1.0 0.9
0.0 0.0 0.0 0.0 0.0 0.0 0.0 0.0 0.0 0.0 0.0 0.0 4.7 0.0 0.0 2.6 0.3 0.0 0.0 0.0 0.0 0.0 1.3 2.3 5.3 4.8 4.7 11.3 8.3 5.9 4.7 5.8 3.1 7.4 1.6 8.0 4.3 6.3 7.6 12.1 7.9 6.5 5.5 2.4 2.2 2.3 2.2

GFSGBSN_prec_snow_207.txt.gz
Snowfall_Accumulation
0.0 0.0 0.0 0.0 0.0 0.0 0.0 0.0 0.0 0.0 0.0 0.0 0.0 0.0 0.0 0.0 0.0 0.0 0.0 0.0 0.0 0.0 0.0 0.0 0.0 0.0 0.0 0.0 0.0 0.0 0.0 0.0 0.0 0.0 0.0 0.0 0.0 0.0 0.0 0.0 0.0 0.0 0.0 0.0 0.0 0.0 0.0
0.0 0.0 0.0 0.0 0.0 0.0 0.0 0.0 0.0 0.0 0.0 0.0 0.0 0.0 0.0 0.0 0.0 0.0 0.0 0.0 0.0 0.0 0.0 0.0 0.0 0.0 0.0 0.0 0.0 0.0 0.0 0.0 0.0 0.0 0.0 0.0 0.0 0.0 0.0 0.0 0.0 0.0 0.0 0.0 0.0 0.0 0.0
0.0 0.0 0.0 0.0 0.0 0.0 0.0 0.0 0.0 0.0 0.0 0.0 0.0 0.0 0.0 0.0 0.0 0.0 0.0 0.0 0.0 0.0 0.0 0.0 0.0 0.0 0.0 0.0 0.0 0.0 0.0 0.0 0.0 0.0 0.0 0.0 0.0 0.0 0.0 0.0 0.0 0.0 0.0 0.0 0.0 0.0 0.0
0.0 0.0 0.0 0.0 0.0 0.0 0.0 0.0 0.0 0.0 0.0 0.0 0.0 0.0 0.0 0.0 0.0 0.0 0.0 0.0 0.0 0.0 0.0 0.0 0.0 0.0 0.0 0.0 0.0 0.0 0.0 0.0 0.0 0.0 0.0 0.0 0.0 0.0 0.0 0.0 0.0 0.0 0.0 0.0 0.0 0.0 0.0
0.0 0.0 0.0 0.0 0.0 0.0 0.0 0.0 0.0 0.0 0.0 0.0 0.0 0.0 0.0 0.0 0.0 0.0 0.0 0.0 0.0 0.0 0.0 0.0 0.0 0.0 0.0 0.0 0.0 0.0 0.0 0.0 0.0 0.0 0.0 0.0 0.0 0.0 0.0 0.0 0.0 0.0 0.0 0.0 0.0 0.0 0.0
0.0 0.0 0.0 0.0 0.0 0.0 0.0 0.0 0.0 0.0 0.0 0.0 0.0 0.0 0.0 0.0 0.0 0.0 0.0 0.0 0.0 0.0 0.0 0.0 0.0 0.0 0.0 0.0 0.0 0.0 0.0 0.0 0.0 0.0 0.0 0.0 0.0 0.0 0.0 0.0 0.0 0.0 0.0 0.0 0.0 0.0 0.0
0.0 0.0 0.0 0.0 0.0 0.0 0.0 0.0 0.0 0.0 0.0 0.0 0.0 0.0 0.0 0.0 0.0 0.0 0.0 0.0 0.0 0.0 0.0 0.0 0.0 0.0 0.0 0.0 0.0 0.0 0.0 0.0 0.0 0.0 0.0 0.0 0.0 0.0 0.0 0.0 0.1 0.0 0.0 0.0 0.0 0.0 0.0
0.0 0.0 0.0 0.0 0.0 0.0 0.0 0.0 0.0 0.0 0.0 0.0 0.0 0.0 0.0 0.0 0.0 0.0 0.0 0.0 0.0 0.0 0.0 0.0 0.0 0.0 0.0 0.0 0.0 0.0 0.0 0.0 0.0 0.0 0.0 0.0 0.1 0.0 0.0 0.0 0.0 0.0 0.1 0.1 0.0 0.0 0.0
0.0 0.0 0.0 0.0 0.0 0.0 0.0 0.0 0.0 0.0 0.0 0.0 0.0 0.0 0.0 0.0 0.0 0.0 0.0 0.0 0.0 0.0 0.0 0.0 0.0 0.0 0.0 0.0 0.0 0.0 0.0 0.0 0.0 0.0 0.1 0.0 0.0 0.0 0.0 0.0 0.1 0.0 0.0 0.0 0.0 0.0 0.0
0.0 0.0 0.0 0.0 0.0 0.0 0.0 0.0 0.0 0.0 0.0 0.0 0.0 0.0 0.0 0.0 0.0 0.0 0.0 0.0 0.0 0.0 0.4 0.0 0.0 0.0 0.0 0.0 0.0 0.0 0.0 0.0 0.0 0.0 0.0 0.0 0.0 0.0 0.0 0.2 0.4 0.0 0.0 0.0 0.0 0.0 1.7
0.0 0.0 0.0 0.0 0.0 0.0 0.0 0.0 0.0 0.0 0.0 0.0 0.0 0.0 0.0 0.0 0.0 0.0 0.0 0.0 0.0 0.0 50.6 0.0 0.0 0.0 0.0 0.0 0.0 0.0 0.0 0.0 0.0 0.0 0.0 0.2 0.0 0.0 0.0 0.0 0.0 0.0 0.1 0.0 0.0 0.0 0.0
0.0 0.0 0.0 0.0 0.0 0.0 0.0 0.0 0.0 0.0 0.0 0.0 0.0 0.0 0.0 0.0 0.0 0.0 0.0 0.0 0.0 7.0 44.6 0.0 0.0 0.1 0.0 0.0 0.0 0.0 0.0 0.0 0.0 0.0 0.0 0.0 0.0 0.0 0.0 0.0 0.0 0.0 0.0 0.0 0.5 0.4 2.2
0.0 0.0 0.0 0.0 0.0 0.0 0.0 0.0 0.0 0.0 0.0 0.0 0.0 0.0 0.0 0.0 0.0 0.0 0.0 0.0 50.5 50.8 0.0 0.0 0.0 0.0 0.0 0.3 0.6 0.0 0.0 1.0 0.9 0.1 0.7 0.0 0.0 0.0 0.0 0.0 0.0 0.0 0.0 5.3 5.7 5.4 1.1
0.0 0.0 0.0 0.0 0.0 0.0 0.0 0.0 0.0 0.0 0.0 0.0 0.0 0.0 0.0 0.0 0.0 0.0 0.0 7.9 59.0 10.9 0.0 0.0 0.0 0.0 1.2 1.9 1.3 1.1 0.0 0.3 0.0 0.1 0.3 0.4 2.1 0.0 0.0 0.0 0.0 0.2 0.0 1.0 10.3 6.3 1.4
0.0 0.0 0.0 0.0 0.0 0.0 0.0 0.0 0.0 0.0 0.0 0.0 0.0 0.0 0.0 0.0 0.0 0.0 4.5 58.1 26.8 2.5 0.1 0.7 0.0 1.2 2.4 1.4 2.3 1.9 0.1 0.7 0.0 0.9 4.5 7.8 6.3 0.0 0.0 0.0 0.0 0.0 0.2 0.0 4.3 1.6 7.7
0.0 0.0 0.0 0.0 0.0 0.0 0.0 0.0 0.0 0.0 0.0 0.0 0.0 0.0 0.0 0.0 0.0 0.0 30.9 40.4 10.0 0.6 1.5 1.6 9.2 9.3 8.9 4.9 8.0 8.0 4.5 2.5 2.4 2.3 0.0 15.0 16.4 1.5 0.0 0.0 0.0 0.0 0.0 3.2 7.3 26.8 21.9
0.0 0.0 0.0 0.0 0.0 0.0 0.0 0.0 0.0 0.0 0.0 0.0 0.0 1.3 0.0 0.0 0.0 3.9 49.5 17.5 3.5 0.0 0.0 7.7 13.7 13.3 8.8 8.4 9.1 11.7 10.1 1.0 0.0 1.1 0.0 3.4 14.4 1.4 0.0 0.5 1.5 2.2 4.1 3.5 7.1 16.9 23.9
0.0 0.0 0.0 0.0 0.0 0.0 0.0 0.0 0.0 0.0 0.0 0.0 0.0 24.4 0.0 0.0 17.2 34.4 23.9 7.1 0.0 0.0 0.0 2.5 4.7 8.8 10.8 8.9 12.3 16.4 10.5 1.1 0.0 1.3 4.1 3.1 11.7 7.5 2.1 0.0 0.0 0.0 4.6 5.8 19.0 19.2 20.7
0.0 0.0 0.0 0.0 0.0 0.0 0.0 0.0 0.0 0.0 0.0 0.0 12.0 7.8 0.0 0.0 29.3 16.9 5.3 3.1 2.4 3.5 1.9 4.7 7.1 9.8 11.0 11.5 14.2 9.7 6.6 0.0 0.0 0.0 5.3 2.4 13.5 11.3 6.7 0.0 0.0 3.3 1.7 7.5 18.0 22.9 30.6
0.0 0.0 0.0 0.0 0.0 0.0 0.0 0.0 0.0 0.0 0.0 0.0 7.2 32.1 5.8 5.3 2.9 5.4 6.5 7.0 7.2 0.0 2.4 0.1 8.0 9.2 11.0 6.6 6.6 8.8 6.7 0.0 0.0 0.0 0.0 0.0 10.6 9.4 9.0 8.9 7.1 10.5 6.8 4.2 15.2 32.1 19.4
0.0 0.0 0.0 0.0 0.0 0.0 0.0 0.0 0.0 0.0 0.0 0.0 19.1 30.4 0.0 21.8 16.3 7.6 7.1 9.8 6.5 5.4 0.5 0.4 7.9 6.0 8.0 11.3 6.3 4.3 4.0 2.7 0.0 0.0 0.0 1.4 16.1 8.5 6.4 7.3 3.8 3.9 9.0 7.8 8.0 9.2 14.9
0.0 0.0 0.0 0.0 0.0 0.0 0.0 0.0 0.0 0.0 0.0 0.0 58.3 13.4 3.3 4.5 0.4 6.8 14.9 15.5 7.4 2.5 8.7 4.7 4.9 2.4 3.9 8.0 7.0 5.9 5.0 2.0 4.8 0.0 0.5 0.6 8.7 10.1 8.3 6.0 3.1 7.4 9.4 5.9 4.7 6.3 7.1
0.0 0.0 0.0 0.0 0.0 0.0 0.0 0.0 0.0 0.0 0.0 0.0 3.1 0.0 9.1 4.8 3.7 9.1 7.8 4.8 5.2 6.1 0.6 1.8 4.6 7.2 6.5 4.2 1.1 1.1 1.9 2.2 4.2 5.9 5.2 5.8 8.6 7.1 8.4 2.0 3.0 9.7 8.4 4.9 2.9 1.4 1.7
0.0 0.0 0.0 0.0 0.0 0.0 0.0 0.0 0.0 0.0 0.0 0.0 0.0 1.3 20.3 17.8 8.6 5.2 2.0 2.9 5.2 4.3 7.7 2.8 1.3 4.3 0.0 0.0 0.0 0.0 0.9 0.5 0.4 1.8 2.4 7.6 7.1 9.4 7.8 5.7 15.6 6.0 2.4 0.9 0.2 0.4 0.5
0.0 0.0 0.0 0.0 0.0 0.0 0.0 0.0 0.0 0.0 0.0 0.0 0.0 0.0 14.7 16.3 4.2 4.8 4.5 4.7 1.0 2.8 4.5 3.0 1.2 0.0 0.0 1.6 6.2 7.0 3.9 3.1 1.1 0.4 0.8 2.3 7.1 13.5 12.3 5.8 4.1 1.3 0.9 0.5 0.8 1.0 0.7
0.0 0.0 0.0 0.0 0.0 0.0 0.0 0.0 0.0 0.0 0.0 0.0 0.0 0.0 5.0 20.9 7.0 1.7 6.6 5.1 5.7 4.3 5.6 3.5 0.0 0.0 0.0 5.4 12.2 10.4 5.2 3.1 2.1 1.6 0.0 1.1 4.4 18.3 16.8 11.9 5.2 1.5 0.3 0.1 0.1 1.2 0.6
0.0 0.0 0.0 0.0 0.0 0.0 0.0 0.0 0.0 0.0 0.0 0.0 0.0 0.0 4.8 30.8 0.9 1.4 3.7 5.3 3.6 3.9 6.5 1.4 1.7 1.2 1.2 10.6 11.4 8.5 5.3 3.3 5.1 3.9 3.2 6.5 9.8 21.3 17.9 21.0 8.1 1.6 1.0 0.5 4.6 6.1 1.4
0.0 0.0 0.0 0.0 0.0 0.0 0.0 0.0 0.0 0.0 0.0 0.0 0.0 0.0 0.0 20.0 1.4 0.0 0.2 0.7 2.2 2.1 6.2 3.8 10.5 8.1 12.9 14.6 12.6 9.4 7.8 5.9 3.3 2.0 4.6 6.4 10.3 9.3 13.4 18.8 13.9 2.8 1.9 4.5 3.7 1.0 0.9
0.0 0.0 0.0 0.0 0.0 0.0 0.0 0.0 0.0 0.0 0.0 0.0 4.7 0.0 0.0 3.0 0.3 0.0 0.0 0.0 0.0 0.0 1.7 3.3 6.8 6.4 5.8 13.0 8.8 6.1 4.7 5.8 3.1 7.7 1.6 8.0 4.3 6.3 7.6 12.1 7.9 6.5 5.5 2.4 2.2 2.3 2.2

GFSGBSN_prec_snow_210.txt.gz
Snowfall_Accumulation
0.0 0.0 0.0 0.0 0.0 0.0 0.0 0.0 0.0 0.0 0.0 0.0 0.0 0.0 0.0 0.0 0.0 0.0 0.0 0.0 0.0 0.0 0.0 0.0 0.0 0.0 0.0 0.0 0.0 0.0 0.0 0.0 0.0 0.0 0.0 0.0 0.0 0.0 0.0 0.0 0.0 0.0 0.0 0.0 0.0 0.0 0.0
0.0 0.0 0.0 0.0 0.0 0.0 0.0 0.0 0.0 0.0 0.0 0.0 0.0 0.0 0.0 0.0 0.0 0.0 0.0 0.0 0.0 0.0 0.0 0.0 0.0 0.0 0.0 0.0 0.0 0.0 0.0 0.0 0.0 0.0 0.0 0.0 0.0 0.0 0.0 0.0 0.0 0.0 0.0 0.0 0.0 0.0 0.0
0.0 0.0 0.0 0.0 0.0 0.0 0.0 0.0 0.0 0.0 0.0 0.0 0.0 0.0 0.0 0.0 0.0 0.0 0.0 0.0 0.0 0.0 0.0 0.0 0.0 0.0 0.0 0.0 0.0 0.0 0.0 0.0 0.0 0.0 0.0 0.0 0.0 0.0 0.0 0.0 0.0 0.0 0.0 0.0 0.0 0.0 0.0
0.0 0.0 0.0 0.0 0.0 0.0 0.0 0.0 0.0 0.0 0.0 0.0 0.0 0.0 0.0 0.0 0.0 0.0 0.0 0.0 0.0 0.0 0.0 0.0 0.0 0.0 0.0 0.0 0.0 0.0 0.0 0.0 0.0 0.0 0.0 0.0 0.0 0.0 0.0 0.0 0.0 0.0 0.0 0.0 0.0 0.0 0.0
0.0 0.0 0.0 0.0 0.0 0.0 0.0 0.0 0.0 0.0 0.0 0.0 0.0 0.0 0.0 0.0 0.0 0.0 0.0 0.0 0.0 0.0 0.0 0.0 0.0 0.0 0.0 0.0 0.0 0.0 0.0 0.0 0.0 0.0 0.0 0.0 0.0 0.0 0.0 0.0 0.0 0.0 0.0 0.0 0.0 0.0 0.0
0.0 0.0 0.0 0.0 0.0 0.0 0.0 0.0 0.0 0.0 0.0 0.0 0.0 0.0 0.0 0.0 0.0 0.0 0.0 0.0 0.0 0.0 0.0 0.0 0.0 0.0 0.0 0.0 0.0 0.0 0.0 0.0 0.0 0.0 0.0 0.0 0.0 0.0 0.0 0.0 0.0 0.0 0.0 0.0 0.0 0.0 0.0
0.0 0.0 0.0 0.0 0.0 0.0 0.0 0.0 0.0 0.0 0.0 0.0 0.0 0.0 0.0 0.0 0.0 0.0 0.0 0.0 0.0 0.0 0.0 0.0 0.0 0.0 0.0 0.0 0.0 0.0 0.0 0.0 0.0 0.0 0.0 0.0 0.0 0.0 0.0 0.0 0.1 0.0 0.0 0.0 0.0 0.0 0.0
0.0 0.0 0.0 0.0 0.0 0.0 0.0 0.0 0.0 0.0 0.0 0.0 0.0 0.0 0.0 0.0 0.0 0.0 0.0 0.0 0.0 0.0 0.0 0.0 0.0 0.0 0.0 0.0 0.0 0.0 0.0 0.0 0.0 0.0 0.0 0.0 0.1 0.0 0.0 0.0 0.0 0.0 0.1 0.1 0.0 0.0 0.0
0.0 0.0 0.0 0.0 0.0 0.0 0.0 0.0 0.0 0.0 0.0 0.0 0.0 0.0 0.0 0.0 0.0 0.0 0.0 0.0 0.0 0.0 0.0 0.0 0.0 0.0 0.0 0.0 0.0 0.0 0.0 0.0 0.0 0.0 0.1 0.0 0.0 0.0 0.0 0.0 0.1 0.0 0.0 0.0 0.0 0.0 0.0
0.0 0.0 0.0 0.0 0.0 0.0 0.0 0.0 0.0 0.0 0.0 0.0 0.0 0.0 0.0 0.0 0.0 0.0 0.0 0.0 0.0 0.0 0.4 0.0 0.0 0.0 0.0 0.0 0.0 0.0 0.0 0.0 0.0 0.0 0.0 0.0 0.0 0.0 0.0 0.2 0.4 0.0 0.0 0.0 0.0 0.0 1.7
0.0 0.0 0.0 0.0 0.0 0.0 0.0 0.0 0.0 0.0 0.0 0.0 0.0 0.0 0.0 0.0 0.0 0.0 0.0 0.0 0.0 0.0 55.9 0.0 0.0 0.0 0.0 0.0 0.0 0.0 0.0 0.0 0.0 0.0 0.0 0.2 0.0 0.0 0.0 0.0 0.0 0.0 0.1 0.0 0.0 0.0 0.0
0.0 0.0 0.0 0.0 0.0 0.0 0.0 0.0 0.0 0.0 0.0 0.0 0.0 0.0 0.0 0.0 0.0 0.0 0.0 0.0 0.0 10.6 49.0 0.0 0.0 0.1 0.0 0.0 0.0 0.0 0.0 0.0 0.0 0.0 0.0 0.0 0.0 0.0 0.0 0.0 0.0 0.0 0.0 0.0 0.5 0.4 2.2
0.0 0.0 0.0 0.0 0.0 0.0 0.0 0.0 0.0 0.0 0.0 0.0 0.0 0.0 0.0 0.0 0.0 0.0 0.0 0.0 53.5 54.4 0.0 0.0 0.0 0.0 0.0 0.3 0.6 0.0 0.0 1.0 0.9 0.1 0.7 0.0 0.0 0.0 0.0 0.0 0.0 0.0 0.0 5.9 6.7 6.6 2.0
0.0 0.0 0.0 0.0 0.0 0.0 0.0 0.0 0.0 0.0 0.0 0.0 0.0 0.0 0.0 0.0 0.0 0.0 0.0 9.8 62.4 12.0 0.0 0.0 0.0 0.0 1.2 1.9 1.3 1.1 0.0 0.3 0.0 0.1 0.3 0.4 2.1 0.0 0.0 0.0 0.0 0.2 0.0 1.0 11.3 6.7 1.6
0.0 0.0 0.0 0.0 0.0 0.0 0.0 0.0 0.0 0.0 0.0 0.0 0.0 0.0 0.0 0.0 0.0 0.0 4.5 59.8 27.9 3.0 0.5 1.0 0.0 1.7 2.4 1.4 2.3 1.9 0.1 0.7 0.0 0.9 7.3 10.3 6.3 0.0 0.0 0.0 0.0 0.0 0.2 0.0 4.3 1.6 8.7
0.0 0.0 0.0 0.0 0.0 0.0 0.0 0.0 0.0 0.0 0.0 0.0 0.0 0.0 0.0 0.0 0.0 0.0 31.3 40.4 10.0 1.5 2.5 2.3 9.9 10.3 9.9 4.9 8.0 9.7 6.6 5.6 5.7 5.5 0.0 18.2 19.2 4.1 0.0 0.0 0.0 0.0 0.0 3.2 7.3 30.2 25.0
0.0 0.0 0.0 0.0 0.0 0.0 0.0 0.0 0.0 0.0 0.0 0.0 0.0 1.3 0.0 0.0 0.0 3.9 49.5 17.6 3.5 0.0 0.0 8.3 14.6 14.1 9.7 9.6 10.4 12.6 10.6 1.0 1.3 3.4 2.6 5.8 16.7 3.3 2.3 3.3 4.2 5.2 7.4 6.3 9.5 19.5 25.8
0.0 0.0 0.0 0.0 0.0 0.0 0.0 0.0 0.0 0.0 0.0 0.0 0.0 24.5 0.0 0.0 17.2 34.4 23.9 7.1 0.0 0.0 0.0 2.5 5.0 8.8 11.6 10.0 13.1 17.3 10.7 1.1 0.0 1.3 4.1 3.1 13.1 8.5 2.7 0.5 0.0 1.3 6.4 8.2 21.7 21.2 22.2
0.0 0.0 0.0 0.0 0.0 0.0 0.0 0.0 0.0 0.0 0.0 0.0 12.2 7.8 0.0 0.0 29.3 17.0 5.3 3.1 2.4 3.5 1.9 4.7 7.2 10.2 11.7 12.4 14.2 9.7 6.6 0.0 0.0 0.0 5.8 3.1 14.1 12.1 7.1 0.0 0.0 3.5 1.9 7.8 18.5 23.6 31.3
0.0 0.0 0.0 0.0 0.0 0.0 0.0 0.0 0.0 0.0 0.0 0.0 7.4 32.3 5.8 5.3 2.9 5.4 6.9 7.0 7.2 0.0 2.5 0.3 8.1 9.3 11.0 6.7 6.7 8.8 6.7 0.0 0.0 0.0 0.0 0.0 12.0 10.2 9.4 8.9 7.2 10.6 6.9 4.3 15.2 32.3 19.4
0.0 0.0 0.0 0.0 0.0 0.0 0.0 0.0 0.0 0.0 0.0 0.0 19.9 30.4 0.0 21.8 16.3 7.6 7.1 9.8 6.8 5.6 0.5 0.5 7.9 6.0 8.0 11.3 6.3 4.3 4.0 2.7 0.0 0.0 0.0 1.6 16.7 8.8 6.4 7.3 3.9 3.9 9.0 7.9 8.1 9.2 14.9
0.0 0.0 0.0 0.0 0.0 0.0 0.0 0.0 0.0 0.0 0.0 0.0 60.9 14.0 3.5 4.5 0.4 6.8 14.9 15.5 7.4 2.5 8.7 4.7 4.9 2.4 3.9 8.0 7.0 5.9 5.0 2.0 4.8 0.0 0.5 0.6 8.7 10.1 8.3 6.0 3.1 7.5 9.4 5.9 4.7 6.3 7.1
0.0 0.0 0.0 0.0 0.0 0.0 0.0 0.0 0.0 0.0 0.0 0.0 3.1 0.0 10.2 5.3 3.7 9.1 7.8 4.8 5.2 6.1 0.6 1.8 4.6 7.2 6.5 4.2 1.1 1.1 1.9 2.2 4.2 5.9 5.2 5.8 8.6 7.1 8.4 2.0 3.0 9.7 8.4 4.9 2.9 1.4 1.7
0.0 0.0 0.0 0.0 0.0 0.0 0.0 0.0 0.0 0.0 0.0 0.0 0.0 1.3 21.3 17.8 8.8 5.2 2.1 2.9 5.2 4.3 7.7 2.8 1.3 4.3 0.0 0.0 0.0 0.0 0.9 0.5 0.4 1.8 2.4 7.6 7.1 9.4 7.9 5.8 15.6 6.0 2.4 0.9 0.2 0.4 0.5
0.0 0.0 0.0 0.0 0.0 0.0 0.0 0.0 0.0 0.0 0.0 0.0 0.0 0.2 15.2 16.8 4.2 4.8 4.5 4.8 1.2 2.9 4.6 3.0 1.2 0.0 0.0 1.6 6.2 7.0 3.9 3.1 1.1 0.4 0.8 2.3 7.1 13.6 12.3 5.8 4.1 1.3 0.9 0.5 0.8 1.0 0.7
0.0 0.0 0.0 0.0 0.0 0.0 0.0 0.0 0.0 0.0 0.0 0.0 0.0 0.0 6.1 21.6 7.0 1.7 6.9 5.1 5.8 4.3 5.6 3.5 0.0 0.0 0.0 5.4 12.2 10.4 5.2 3.1 2.1 1.6 0.0 1.1 4.4 18.4 16.8 12.0 5.2 1.5 0.3 0.1 0.1 1.2 0.6
0.0 0.0 0.0 0.0 0.0 0.0 0.0 0.0 0.0 0.0 0.0 0.0 0.0 0.0 5.6 32.0 1.0 1.4 3.7 5.3 3.6 3.9 6.5 1.4 1.7 1.2 1.4 10.6 11.5 8.6 5.3 3.5 5.2 3.9 3.2 6.6 10.0 21.6 18.0 21.2 8.1 1.6 1.0 0.5 4.6 6.1 1.4
0.0 0.0 0.0 0.0 0.0 0.0 0.0 0.0 0.0 0.0 0.0 0.0 0.0 0.0 0.0 20.0 1.4 0.0 0.2 0.7 2.2 2.1 6.2 3.8 10.5 8.7 12.9 15.0 12.9 9.4 7.8 5.9 3.4 2.0 4.6 6.4 10.3 9.3 13.5 19.0 13.9 2.8 1.9 4.5 3.7 1.0 0.9
0.0 0.0 0.0 0.0 0.0 0.0 0.0 0.0 0.0 0.0 0.0 0.0 4.7 0.0 0.0 3.2 0.3 0.0 0.0 0.0 0.0 0.0 1.7 4.0 8.0 7.5 8.2 14.7 9.2 6.1 5.0 5.9 3.1 7.7 1.6 8.0 4.3 6.3 7.6 12.1 7.9 6.5 5.5 2.4 2.2 2.3 2.2

GFSGBSN_prec_snow_216.txt.gz
Snowfall_Accumulation
0.0 0.0 0.0 0.0 0.0 0.0 0.0 0.0 0.0 0.0 0.0 0.0 0.0 0.0 0.0 0.0 0.0 0.0 0.0 0.0 0.0 0.0 0.0 0.0 0.0 0.0 0.0 0.0 0.0 0.0 0.0 0.0 0.0 0.0 0.0 0.0 0.0 0.0 0.0 0.0 0.0 0.0 0.0 0.0 0.0 0.0 0.0
0.0 0.0 0.0 0.0 0.0 0.0 0.0 0.0 0.0 0.0 0.0 0.0 0.0 0.0 0.0 0.0 0.0 0.0 0.0 0.0 0.0 0.0 0.0 0.0 0.0 0.0 0.0 0.0 0.0 0.0 0.0 0.0 0.0 0.0 0.0 0.0 0.0 0.0 0.0 0.0 0.0 0.0 0.0 0.0 0.0 0.0 0.0
0.0 0.0 0.0 0.0 0.0 0.0 0.0 0.0 0.0 0.0 0.0 0.0 0.0 0.0 0.0 0.0 0.0 0.0 0.0 0.0 0.0 0.0 0.0 0.0 0.0 0.0 0.0 0.0 0.0 0.0 0.0 0.0 0.0 0.0 0.0 0.0 0.0 0.0 0.0 0.0 0.0 0.0 0.0 0.0 0.0 0.0 0.0
0.0 0.0 0.0 0.0 0.0 0.0 0.0 0.0 0.0 0.0 0.0 0.0 0.0 0.0 0.0 0.0 0.0 0.0 0.0 0.0 0.0 0.0 0.0 0.0 0.0 0.0 0.0 0.0 0.0 0.0 0.0 0.0 0.0 0.0 0.0 0.0 0.0 0.0 0.0 0.0 0.0 0.0 0.0 0.0 0.0 0.0 0.0
0.0 0.0 0.0 0.0 0.0 0.0 0.0 0.0 0.0 0.0 0.0 0.0 0.0 0.0 0.0 0.0 0.0 0.0 0.0 0.0 0.0 0.0 0.0 0.0 0.0 0.0 0.0 0.0 0.0 0.0 0.0 0.0 0.0 0.0 0.0 0.0 0.0 0.0 0.0 0.0 0.0 0.0 0.0 0.0 0.0 0.0 0.0
0.0 0.0 0.0 0.0 0.0 0.0 0.0 0.0 0.0 0.0 0.0 0.0 0.0 0.0 0.0 0.0 0.0 0.0 0.0 0.0 0.0 0.0 0.0 0.0 0.0 0.0 0.0 0.0 0.0 0.0 0.0 0.0 0.0 0.0 0.0 0.0 0.0 0.0 0.0 0.0 0.0 0.0 0.0 0.0 0.0 0.0 0.0
0.0 0.0 0.0 0.0 0.0 0.0 0.0 0.0 0.0 0.0 0.0 0.0 0.0 0.0 0.0 0.0 0.0 0.0 0.0 0.0 0.0 0.0 0.0 0.0 0.0 0.0 0.0 0.0 0.0 0.0 0.0 0.0 0.0 0.0 0.0 0.0 0.0 0.0 0.0 0.0 0.1 0.0 0.0 0.0 0.0 0.0 0.0
0.0 0.0 0.0 0.0 0.0 0.0 0.0 0.0 0.0 0.0 0.0 0.0 0.0 0.0 0.0 0.0 0.0 0.0 0.0 0.0 0.0 0.0 0.0 0.0 0.0 0.0 0.0 0.0 0.0 0.0 0.0 0.0 0.0 0.0 0.0 0.0 0.1 0.0 0.0 0.0 0.0 0.0 0.1 0.1 0.0 0.0 0.0
0.0 0.0 0.0 0.0 0.0 0.0 0.0 0.0 0.0 0.0 0.0 0.0 0.0 0.0 0.0 0.0 0.0 0.0 0.0 0.0 0.0 0.0 0.0 0.0 0.0 0.0 0.0 0.0 0.0 0.0 0.0 0.0 0.0 0.0 0.1 0.0 0.0 0.0 0.0 0.0 0.1 0.0 0.0 0.0 0.0 0.0 0.0
0.0 0.0 0.0 0.0 0.0 0.0 0.0 0.0 0.0 0.0 0.0 0.0 0.0 0.0 0.0 0.0 0.0 0.0 0.0 0.0 0.0 0.0 0.4 0.0 0.0 0.0 0.0 0.0 0.0 0.0 0.0 0.0 0.0 0.0 0.0 0.0 0.0 0.0 0.0 0.2 0.4 0.0 0.0 0.0 0.0 0.0 1.7
0.0 0.0 0.0 0.0 0.0 0.0 0.0 0.0 0.0 0.0 0.0 0.0 0.0 0.0 0.0 0.0 0.0 0.0 0.0 0.0 0.0 0.0 61.3 0.0 0.0 0.0 0.0 0.0 0.0 0.0 0.0 0.0 0.0 0.0 0.0 0.2 0.0 0.0 0.0 0.0 0.0 0.0 0.1 0.0 0.0 0.0 0.0
0.0 0.0 0.0 0.0 0.0 0.0 0.0 0.0 0.0 0.0 0.0 0.0 0.0 0.0 0.0 0.0 0.0 0.0 0.0 0.0 0.0 15.6 53.8 0.0 0.0 0.1 0.0 0.0 0.0 0.0 0.0 0.0 0.0 0.0 0.0 0.0 0.0 0.0 0.0 0.0 0.0 0.0 0.0 0.0 0.5 0.4 2.2
0.0 0.0 0.0 0.0 0.0 0.0 0.0 0.0 0.0 0.0 0.0 0.0 0.0 0.0 0.0 0.0 0.0 0.0 0.0 0.0 56.7 59.1 0.0 0.0 0.0 0.0 0.0 0.3 0.6 0.0 0.0 1.0 0.9 0.1 0.7 0.0 0.0 0.0 0.0 0.0 0.0 0.0 0.0 11.3 11.5 10.8 4.2
0.0 0.0 0.0 0.0 0.0 0.0 0.0 0.0 0.0 0.0 0.0 0.0 0.0 0.0 0.0 0.0 0.0 0.0 0.0 10.0 64.4 12.1 0.1 0.0 0.0 0.0 1.2 1.9 1.3 1.1 0.0 0.3 0.0 0.1 0.3 0.4 2.3 0.0 0.0 0.0 0.0 0.2 0.0 2.6 15.5 9.3 2.5
0.0 0.0 0.0 0.0 0.0 0.0 0.0 0.0 0.0 0.0 0.0 0.0 0.0 0.0 0.0 0.0 0.0 0.0 4.5 60.3 27.9 3.3 0.8 1.2 0.0 1.7 3.0 1.4 2.3 1.9 0.1 0.7 0.0 0.9 7.3 12.7 6.3 0.0 0.0 0.0 0.0 0.0 0.2 0.0 4.3 1.6 11.7
0.0 0.0 0.0 0.0 0.0 0.0 0.0 0.0 0.0 0.0 0.0 0.0 0.0 0.0 0.0 0.0 0.0 0.0 31.4 40.4 10.0 1.8 3.0 2.7 10.3 10.8 10.9 4.9 8.5 10.9 9.9 9.6 10.0 9.8 1.4 21.7 22.4 5.8 2.3 0.0 0.0 0.0 0.0 3.2 7.3 37.9 30.8
0.0 0.0 0.0 0.0 0.0 0.0 0.0 0.0 0.0 0.0 0.0 0.0 0.0 1.3 0.0 0.0 0.0 4.2 49.6 17.6 3.5 0.0 0.0 8.3 15.6 14.6 10.2 10.0 10.9 13.1 11.5 1.5 1.9 6.4 5.0 10.5 19.5 6.5 3.5 5.9 7.1 7.9 10.7 11.2 15.2 26.3 30.6
0.0 0.0 0.0 0.0 0.0 0.0 0.0 0.0 0.0 0.0 0.0 0.0 0.0 24.5 0.0 0.0 17.5 34.6 24.0 7.1 0.0 0.1 0.1 2.9 5.1 8.8 11.6 11.6 13.9 18.2 11.7 2.0 0.0 1.8 4.7 3.8 14.9 10.2 4.6 1.6 1.6 4.5 10.6 14.1 29.0 26.9 26.2
0.0 0.0 0.0 0.0 0.0 0.0 0.0 0.0 0.0 0.0 0.0 0.0 12.4 7.8 0.0 0.0 29.5 17.2 5.4 3.2 2.5 3.5 1.9 4.7 7.4 10.4 12.5 14.0 14.5 10.1 8.1 1.0 0.0 1.3 7.0 4.0 14.7 12.2 7.3 0.1 0.5 4.8 3.6 10.0 21.8 27.2 33.7
0.0 0.0 0.0 0.0 0.0 0.0 0.0 0.0 0.0 0.0 0.0 0.0 7.4 32.4 5.9 5.4 3.0 5.5 7.1 7.1 7.2 0.0 2.5 0.5 8.1 9.4 11.1 6.7 6.9 8.9 6.8 0.4 0.0 0.1 0.0 0.0 12.6 11.1 9.9 9.3 7.6 10.8 7.4 5.5 16.9 33.9 20.8
0.0 0.0 0.0 0.0 0.0 0.0 0.0 0.0 0.0 0.0 0.0 0.0 21.9 31.3 0.1 22.1 16.6 7.9 7.7 10.1 6.9 6.1 1.0 0.7 8.8 6.5 8.2 11.3 6.4 4.3 4.1 2.7 0.0 0.0 0.2 1.7 16.7 8.8 6.4 7.3 3.9 3.9 9.0 7.9 8.7 9.5 15.4
0.0 0.0 0.0 0.0 0.0 0.0 0.0 0.0 0.0 0.0 0.0 0.0 61.7 14.1 4.0 4.6 0.5 7.4 15.7 15.8 7.5 2.7 8.9 4.8 5.4 3.0 4.1 8.1 7.0 5.9 5.0 2.1 4.8 0.0 0.6 0.8 8.7 10.1 8.3 6.0 3.1 7.5 9.4 5.9 4.7 6.3 7.2
0.0 0.0 0.0 0.0 0.0 0.0 0.0 0.0 0.0 0.0 0.0 0.0 3.1 0.0 10.6 5.3 3.8 9.3 8.0 4.9 5.4 6.6 0.6 1.9 4.8 7.4 6.5 4.2 1.1 1.1 1.9 2.2 4.2 5.9 5.3 5.8 8.6 7.1 8.4 2.0 3.0 9.7 8.4 4.9 2.9 1.4 1.7
0.0 0.0 0.0 0.0 0.0 0.0 0.0 0.0 0.0 0.0 0.0 0.0 0.0 1.4 22.8 18.3 8.9 5.3 2.2 3.1 5.3 4.5 8.1 2.8 1.3 4.3 0.0 0.0 0.0 0.0 0.9 0.5 0.4 1.8 2.4 7.6 7.2 9.7 8.1 5.8 15.6 6.0 2.4 0.9 0.2 0.4 0.5
0.0 0.0 0.0 0.0 0.0 0.0 0.0 0.0 0.0 0.0 0.0 0.0 0.0 0.2 18.3 18.2 4.3 4.9 4.7 5.1 1.3 3.0 4.6 3.1 1.2 0.0 0.0 1.7 6.2 7.0 3.9 3.1 1.1 0.4 0.8 2.3 7.3 14.0 12.4 5.9 4.1 1.3 0.9 0.5 0.8 1.0 0.7
0.0 0.0 0.0 0.0 0.0 0.0 0.0 0.0 0.0 0.0 0.0 0.0 0.0 0.0 11.4 26.3 8.5 1.7 7.6 5.6 6.1 4.5 5.7 3.5 0.0 0.0 0.0 5.4 12.4 10.6 5.3 3.1 2.1 1.7 0.0 1.2 4.8 19.0 17.0 12.2 5.3 1.5 0.3 0.1 0.1 1.2 0.6
0.0 0.0 0.0 0.0 0.0 0.0 0.0 0.0 0.0 0.0 0.0 0.0 0.0 0.0 6.3 33.0 1.1 1.4 3.9 5.5 3.9 4.1 6.7 1.5 1.8 1.6 1.7 10.9 11.7 8.8 5.4 3.5 5.3 4.1 3.4 7.4 11.0 22.3 18.4 21.6 8.1 1.6 1.0 0.5 4.6 6.1 1.4
0.0 0.0 0.0 0.0 0.0 0.0 0.0 0.0 0.0 0.0 0.0 0.0 0.0 0.0 0.0 20.4 1.4 0.0 0.3 0.9 2.5 2.1 6.5 4.1 10.6 9.0 13.8 16.0 13.4 9.7 7.9 6.1 3.6 2.0 5.0 7.2 11.2 9.8 14.1 19.4 14.0 2.8 1.9 4.5 3.7 1.0 0.9
0.0 0.0 0.0 0.0 0.0 0.0 0.0 0.0 0.0 0.0 0.0 0.0 4.7 0.0 0.0 3.6 0.3 0.0 0.0 0.0 0.0 0.0 1.9 4.2 8.0 8.9 12.4 19.6 12.5 7.4 5.5 6.1 3.3 7.9 1.6 8.1 4.3 6.5 7.7 12.2 7.9 6.5 5.5 2.4 2.2 2.3 2.2